Regional Weather Roundup
Issued by NWS

Home | Current Version | Previous Version | Text Only | Print | Product List | Glossary On
Versions: 1 2 3 4 5 6 7 8 9 10 11 12 13 14 15 16 17 18 19 20 21 22 23 24 25 26 27 28 29 30 31
000
ASUS42 KTBW 221510
RWRFL
FLORIDA REGIONAL WEATHER ROUNDUP
NATIONAL WEATHER SERVICE TAMPA BAY RUSKIN FL
1100 AM EDT WED OCT 22 2014

NOTE: "FAIR" INDICATES FEW OR NO CLOUDS BELOW 12,000 FEET WITH NO
SIGNIFICANT WEATHER AND/OR OBSTRUCTIONS TO VISIBILITY.


FLZ001>010-012>015-112-114-115-221600-
PANHANDLE FLORIDA

CITY           SKY/WX    TMP DP  RH WIND       PRES   REMARKS
PENSACOLA      NOT AVBL
MILTON NAS     SUNNY     68  51  54 NE9       30.10S
VALPARAISO     MOSUNNY   70  50  49 NE7       30.08S
PANAMA CITY    NOT AVBL

STATION/POSITION SKY/WX   TEMP    WIND        PRES    WAVE   SWELL
                          AIR SEA DIR/SP/G            HT/PER HT/PER
                          (F)     (DEG/KT/KT) (MB)    (FT/S) (FT/S)
30.1N   87.6W              71 78   40/ 16/ 19 1017.4R   2/ 4
29.2N   88.2W              75 79   50/ 16/ 17 1018.0R   3/ 4
PANAMA CITY BEAC           67 77   50/ 12/ 17 1018.1R
CAPE SAN BLAS    NOT AVBL
TOWER C                    71      50/ 16/ 18 1016.9R
28.5N   84.5W              77 81   50/ 14/ 17 1016.1R   2/ 4

$$
FLZ011-016>038-118-127-128-134-139-239-221600-
NORTH FLORIDA

CITY           SKY/WX    TMP DP  RH WIND       PRES   REMARKS
TALLAHASSEE    NOT AVBL
CROSS CITY       N/A     72  52  49 NE6       30.04S
GAINESVILLE    NOT AVBL
MAYPORT NAS    MOSUNNY   71  61  70 N13G18    30.04R
JACKSONVILLE   NOT AVBL
JAX CECIL      NOT AVBL

STATION/POSITION SKY/WX   TEMP    WIND        PRES    WAVE   SWELL
                          AIR SEA DIR/SP/G            HT/PER HT/PER
                          (F)     (DEG/KT/KT) (MB)    (FT/S) (FT/S)
SHELL POINT                64      30/  4/  7   N/A
KEATON BEACH               65      40/  8/ 13 1017.6R
CEDAR KEY                  67      40/ 10/ 13 1017.2R
FERNANDINA                 67 76   10/  8/ 13 1016.6R
30.7N   81.3W                 77                N/A     3/ 5
MAYPORT                    67 78  360/  8/ 13   N/A
31.4N   80.9W              65 76   20/ 19/ 25 1016.5R   4/ 5
ST AUGUSTINE               69     340/  9/ 10 1017.0R

$$
FLZ040-043>046-052-053-057-058-063-144-221600-
INTERIOR CENTRAL FLORIDA

CITY           SKY/WX    TMP DP  RH WIND       PRES   REMARKS
ORLANDO INTL   MOSUNNY   79  62  56 N7        30.01R

$$
FLZ041-047-054-059-064-141-147-221600-
EAST CENTRAL FLORIDA

CITY           SKY/WX    TMP DP  RH WIND       PRES   REMARKS
DAYTONA BEACH  NOT AVBL
MELBOURNE      NOT AVBL

STATION/POSITION SKY/WX   TEMP    WIND        PRES    WAVE   SWELL
                          AIR SEA DIR/SP/G            HT/PER HT/PER
                          (F)     (DEG/KT/KT) (MB)    (FT/S) (FT/S)
28.5N   80.2W              78 83  340/ 10/ 12 1015.3R   2/ 9   2/ 9
28.9N   78.5W              80 80  330/ 10/ 12 1014.8R
TRIDENT PIER               77 80  330/  5/  7 1015.1R
28.4N   80.5W                 80                N/A     1/11
27.6N   80.2W                 80                N/A     2/12   2/12

$$
FLZ050-056-061-142-242-148-248-149-249-151-251-155-255-
160-260-221600-
WEST CENTRAL FLORIDA

CITY           SKY/WX    TMP DP  RH WIND       PRES   REMARKS
BROOKSVILLE    NOT AVBL
CLEARWATER     NOT AVBL
TAMPA INTL     NOT AVBL
ST PETERSBURG  NOT AVBL
SARASOTA       NOT AVBL
VENICE         NOT AVBL

STATION/POSITION SKY/WX   TEMP    WIND        PRES    WAVE   SWELL
                          AIR SEA DIR/SP/G            HT/PER HT/PER
                          (F)     (DEG/KT/KT) (MB)    (FT/S) (FT/S)
CEDAR KEY                  67      40/ 10/ 13 1017.2R
28.5N   84.5W              77 81   50/ 14/ 17 1016.1R   2/ 4
27.3N   84.3W                 82                N/A     2/ 4
CLEARWATER BEACH NOT AVBL
MIDDLE TAMPA BAY           74      80/  8/  9 1016.3R
VENICE                     74 80   70/  8/ 10 1015.3R

$$
FLZ066-069-070-075>078-162-262-165-265-221600-
SOUTHWEST FLORIDA AND KEYS

CITY           SKY/WX    TMP DP  RH WIND       PRES   REMARKS
FT MYERS       NOT AVBL
KEY WEST NAS   CLOUDY    79  75  87 E8        29.95S
KEY WEST INTL  NOT AVBL

STATION/POSITION SKY/WX   TEMP    WIND        PRES    WAVE   SWELL
                          AIR SEA DIR/SP/G            HT/PER HT/PER
                          (F)     (DEG/KT/KT) (MB)    (FT/S) (FT/S)
VENICE                     74 80   70/  8/ 10 1015.3R
NAPLES                     78 82   20/  4/ 10 1015.3F
26.0N   85.6W              79 83   70/ 17/ 21 1014.4R   3/ 6
DRY TORTUGAS               81     110/ 12/ 13 1013.9R
NW FL BAY                  78      50/  8/  8 1014.8R
SAND KEY                   80      60/ 12/ 13 1014.0R
SOMBRERO KEY               79      60/  9/ 10 1015.1R
LONG KEY                   78 79   40/  6/  6 1015.4R
MOLASSES REEF              79 83   40/  7/  8 1014.7R

$$
FLZ067-068-071>074-168-172>174-221600-
SOUTHEAST FLORIDA

CITY           SKY/WX    TMP DP  RH WIND       PRES   REMARKS
FT LAUDERDALE  NOT AVBL
MIAMI          NOT AVBL
HOMESTEAD      NOT AVBL

STATION/POSITION SKY/WX   TEMP    WIND        PRES    WAVE   SWELL
                          AIR SEA DIR/SP/G            HT/PER HT/PER
                          (F)     (DEG/KT/KT) (MB)    (FT/S) (FT/S)
PORT EVERGLADES            78     310/  3/  4 1014.8
VIRGINIA KEY               81 80   60/  3/  5 1015.2F
LAKE WORTH                 76 82  340/  5/  7 1014.8S
FOWEY ROCKS                80 81  360/  8/  9 1015.2R
SETTLEMENT POINT           78     100/  7/  8 1015.8R

$$




USA.gov is the U.S. government's official web portal to all federal, state and local government web resources and services.